map of GRX home
GRX - Airport
Location
City:  Granada, Andalusia, Spain
Name:Federico García Lorca Granada-Jaén Airport
ICAO:LEGR
IATA:GRX

Details
Type:Airport (Aerodrome, Airfield)
Use:Public/Civil
Latitude:37°11'19"N (37.188731)
Longitude:3°46'38"W (-3.777355)
Datum:WGS 1984
Elevation:1860 ft (567 m)
Variation:0.59°W (WMM2015 magnetic declination)
0.11° annual change
Runways:1
Longest:9514 × 148 ft (2900 × 45 m), paved

Time
Time Zone:UTC+1 (DST+2)
Local Time:

Weather
METAR:LEGR 182300Z AUTO VRB02KT 9999 NCD 21/18 Q1020
TAF:LEGR 182000Z 1821/1921 VRB02KT 9999 FEW040 TX31/1915Z TN16/1906Z PROB40
TEMPO 1914/1919 SCT035CB

Related Locations
Nearby:
Farthest:NZWV: 12428 mi / 20001 km
Waihi Beach, BOP, NZ

Find:

   beyond  
but within

Other Information
Maps:
NOTAMs:
Links:
Sources:

  
  • flag of Spain
  • flag of Andalusia
  

Sectional Chart

Flight Planning
at skyvector.com

Satellite Image

Google Maps Satellite view

 

Copyright © 2004-2018 Karl L. Swartz. All rights reserved.
The Great Circle Mapper name and logo are trademarks of the Great Circle Mapper.
All other trademarks mentioned herein belong to their respective owners.
Please see credits for attibutions and further copyright information.

  Follow gcmap on Facebook Follow gcmap on Twitter Follow gcmap on Google+ GCmap on LinkedIn

hCard Microformat

Geo Microformat